User: anonymous   Login
Location: Bosmont
(49.7318°N, 3.8587°E)
Time: 18:36:09
(UTC+00:00)
Language:

COSMOS 2251 DEB - Orbit

View from above orbital plane
View from above orbital plane
View from above satellite
View from above satellite

Ground track
Ground track

The orbit data is extracted from the following two-line orbital elements,

1 35290U 93036AJU 24146.52506988  .00010071  00000-0  21460-2 0  9994
2 35290  74.0147  78.9388 0008922 293.3664  66.6562 14.59014546796384
Epoch (UTC): 25 May 2024 12:36:06
Eccentricity: 0.0008922
inclination: 74.0147°
perigee height: 690 km
apogee height: 702 km
right ascension of ascending node: 78.9388°
argument of perigee: 293.3664°
revolutions per day: 14.59014546
mean anomaly at epoch: 66.6562°
orbit number at epoch: 79638

The dashed part of the orbit path shows where the satellite is in the earth's shadow,  

DLR